STARLINK-11589, 63311

Orbit data source: Space-Track

STARLINK-11589, 63311 is a payload satellite owned by SpaceX/Seattle (US) in LEO that was launched on Tue, 18 Mar 2025 UTC via an FALCON 9 launch vehicle from the Air Force Eastern Test Range (AFETR). Payload-class satellites include a variety of spacecraft equipped with specific instruments for various scientific and technological missions. These include communications satellites like Starlink; space stations such as the ISS; scientific satellites like the Hubble; Earth observation satellites from companies like Planet Labs, Umbra, and HawkEye 360; GPS; miniature CubeSats for education and research; and military/defense satellites.

Loading next visibility...
Identifier
63311, 2025-057E
Orbit
LEO
Last TLE update
1 day ago
Origin
Manufacturer
SpaceX/Seattle
Mission
Operational spacecraft
Bus & Motor
STARLINK V2M, Unknown motor
Mass
730 kg wet, ~700 kg dry
Launch date (UTC)
2025-03-18 (1 month ago)
Launch vehicle
FALCON 9
Launch site
Air Force Eastern Test Range (AFETR)
Object type
Payload
Rocket body
Debris
Shape & HBR
Unknown
Radar Cross Section
Large (>1 m²)

Expand to show TLE details & history

TLE from 1 day ago
0 STARLINK-11589
1 63311U 25057E   25119.14834948 -.00000178  00000-0  21139-5 0  9990
2 63311  43.0002   0.9137 0001787 265.8846  94.1818 15.70829006  6541
Epoch: 2025-04-29T03:33Z
Definitive object data (Epoch: 2025-04-29T03:33:37.395Z)
Latitude
0.00004°
Longitude
90.15575°
Altitude
356.386 km
Speed
7.697 km/s
True Right ascension
00h 03m 39s
True Declination
0° 00' 00"
Sunlit
Object was in daylight at TLE epoch
Visualization TLE readout
Latitude
33.40181°
Longitude
-142.32966°
Altitude
358.686 km
Speed
7.699 km/s
Apparent Right ascension
07h 27m 28s
Apparent Declination
-2° 10' 59"
Sunlit
Object is in daylight
Visualization observer readout
Local Sidereal Time
18:10:59
Azimuth
330.42° NNW
Elevation
-48.469°
Doppler factor
1
Orbital elements
Apogee altitude
359.712 km
Perigee altitude
357.304 km
Semi-major axis
6,736.645 km
Eccentricity
0.0001787
Inclination
43.0002°
RAAN
0.9137°
Arg. of periapsis
265.8846°
True anomaly
94.20222°
Mean anomaly
94.1818°
Eccentric anomaly
94.19201°
Mean motion
3.92534 °/min
BSTAR
0.0000021139
Orbital period
91.71 mins
Loading maneuver chart data...
Loading SW <> Apogee altitude chart data...
Loading historical data...
Loading historical data...
Loading historical data...
Loading historical data...
Loading historical data...
Loading historical data...
Loading historical data...

STARLINK-11589 Visibility forecast

Observer location: undefined°, undefined°

Span
Click to sort rows by Start time (UTC) header in descending order
Start Az.
Max El. time (UTC)
Max El. Az.
Max El.
End time (UTC)
End Az.
5 mins2025-04-30 19:27:57.683Z233.69° WSW2025-04-30 19:30:57.683Z118.104° SE36.701°2025-04-30 19:32:57.683Z79.33° E
4 mins2025-04-30 21:04:57.683Z285.397° WNW2025-04-30 21:06:57.683Z14.257° NNE35.494°2025-04-30 21:08:57.683Z65.857° ENE
|